STARLINK-36170, 67083

Orbit data source: Space-Track

STARLINK-36170, 67083 is a payload satellite owned by SpaceX/Seattle (US) in LEO that was launched on Sun, 14 Dec 2025 UTC via an FALCON 9 launch vehicle from the Air Force Western Test Range (AFWTR). Payload-class satellites include a variety of spacecraft equipped with specific instruments for various scientific and technological missions. These include communications satellites like Starlink; space stations such as the ISS; scientific satellites like the Hubble; Earth observation satellites from companies like Planet Labs, Umbra, and HawkEye 360; GPS; miniature CubeSats for education and research; and military/defense satellites.

Loading next visibility...
Identifier
67083, 2025-298J
Orbit
LEO
Country
Flag of USUS
Related business
Manufacturer
SpaceX/Seattle
Mission
Operational Commercial Communications
Bus & Motor
STARLINK V2MO, Unknown motor
Mass
575 kg wet, ~530 kg dry
Launch date (UTC)
2025-12-14 (6 months ago)
Launch vehicle
FALCON 9
Launch site
Air Force Western Test Range (AFWTR)
Object type
Payload
Rocket body
Debris
Shape & HBR
Box + 2 Pan, 17.7 m
Radar Cross Section
36.964 m², Large (>1 m²)

Expand to show TLE details & history
Last TLE update: 14 hours ago

TLE from 14 hours ago
0 STARLINK-36170
1 67083U 25298J   26171.28741054  .00003009  00000-0  25978-3 0  9994
2 67083  70.0008 115.8428 0002713 269.0693  91.0155 14.98338464 28571
Epoch: 2026-06-20T06:53Z
TLE epoch observation values (Epoch: 2026-06-20T06:53:52.270Z)
Latitude
-0.00006°
Longitude
103.87079°
Altitude
574.488 km
Speed
7.574 km/s
True Right ascension
07h 43m 22s
True Declination
0° 00' 00"
Sunlit
Object was in daylight at epoch
Visualization orbit readout
Latitude
Unknown
Longitude
Unknown
Altitude
Unknown
Speed
Unknown
Apparent Right ascension
Unknown
Apparent Declination
Unknown
Sunlit
N/A
Visualization observer readout
Local Sidereal Time
07:20:11
Azimuth
Unknown
Elevation
Unknown
Doppler factor
Unknown
Orbital elements
Apogee altitude
571.863 km
Perigee altitude
568.093 km
Semi-major axis
6,948.115 km
Eccentricity
0.00027
Inclination
70.0008°
RAAN
115.8428°
Arg. of periapsis
269.0693°
True anomaly
91.04658°
Mean anomaly
91.0155°
Eccentric anomaly
91.03104°
Mean motion
3.74751 °/min
Orbital period
96.06 mins
BSTAR
0.00025978
Loading maneuver chart data...
Computing Atmospheric mass density...
Loading historical data...
Loading historical data...
Loading historical data...
Loading historical data...
Loading historical data...
Loading historical data...
Loading historical data...

Documentation

Showing up to 5 results
|